Time,TemperatureF,DewpointF,PressureIn,WindDirection,WindDirectionDegrees,WindSpeedMPH,WindSpeedGustMPH,Humidity,HourlyPrecipIn,Conditions,Clouds,dailyrainin,SolarRadiationWatts/m^2,SoftwareType,DateUTC
2013-12-16 00:00:00,-22.0,-31.0,-100.00,North,-999,0.0,0.0,63,0.00,,,0.00,0.000000,,2013-12-16 06:00:00,
2013-12-16 00:42:00,-22.0,-31.0,-100.00,North,-999,0.0,0.0,63,0.00,,,0.00,0.000000,,2013-12-16 06:42:00,
2013-12-16 00:52:00,-22.0,-31.0,-100.00,North,-999,0.0,0.0,63,0.00,,,0.00,0.000000,,2013-12-16 06:52:00,
2013-12-16 01:00:00,-22.0,-30.0,-100.00,North,-999,0.0,0.0,64,0.00,,,0.00,0.000000,,2013-12-16 07:00:00,
2013-12-16 01:43:00,-22.0,-30.0,-100.00,North,-999,0.0,0.0,64,0.00,,,0.00,0.000000,,2013-12-16 07:43:00,
2013-12-16 01:52:00,-22.0,-30.0,-100.00,North,-999,0.0,0.0,64,0.00,,,0.00,0.000000,,2013-12-16 07:52:00,
2013-12-16 02:22:00,-23.0,-31.0,-100.00,North,-999,0.0,2.0,63,0.00,,,0.00,0.000000,,2013-12-16 08:22:00,
2013-12-16 02:32:00,-23.0,-31.0,-100.00,North,-999,0.0,2.0,63,0.00,,,0.00,0.000000,,2013-12-16 08:32:00,
2013-12-16 03:00:00,-21.0,-29.0,-100.00,North,-999,0.0,2.0,64,0.00,,,0.00,0.000000,,2013-12-16 09:00:00,
2013-12-16 03:43:00,-21.0,-29.0,-100.00,North,-999,0.0,2.0,64,0.00,,,0.00,0.000000,,2013-12-16 09:43:00,
2013-12-16 03:53:00,-21.0,-29.0,-100.00,North,-999,0.0,2.0,64,0.00,,,0.00,0.000000,,2013-12-16 09:53:00,
2013-12-16 04:00:00,-21.0,-30.0,-100.00,North,-999,0.0,2.0,63,0.00,,,0.00,0.000000,,2013-12-16 10:00:00,
2013-12-16 04:43:00,-21.0,-30.0,-100.00,North,-999,0.0,2.0,63,0.00,,,0.00,0.000000,,2013-12-16 10:43:00,
2013-12-16 04:52:00,-21.0,-30.0,-100.00,North,-999,0.0,2.0,63,0.00,,,0.00,0.000000,,2013-12-16 10:52:00,
2013-12-16 05:00:00,-18.0,-26.0,-100.00,East,87,1.0,2.0,66,0.00,,,0.00,0.000000,,2013-12-16 11:00:00,
2013-12-16 05:42:00,-18.0,-26.0,-100.00,East,87,1.0,2.0,66,0.00,,,0.00,0.000000,,2013-12-16 11:42:00,
2013-12-16 05:53:00,-18.0,-26.0,-100.00,East,87,1.0,2.0,66,0.00,,,0.00,0.000000,,2013-12-16 11:53:00,
2013-12-16 06:00:00,-13.0,-20.0,-100.00,SE,127,2.0,5.0,69,0.00,,,0.00,0.000000,,2013-12-16 12:00:00,
2013-12-16 06:42:00,-13.0,-20.0,-100.00,SE,127,2.0,5.0,69,0.00,,,0.00,0.000000,,2013-12-16 12:42:00,
2013-12-16 06:52:00,-13.0,-20.0,-100.00,SE,127,2.0,5.0,69,0.00,,,0.00,0.000000,,2013-12-16 12:52:00,
2013-12-16 07:00:00,-9.0,-16.0,-100.00,SE,135,2.0,5.0,71,0.00,,,0.00,0.000000,,2013-12-16 13:00:00,
2013-12-16 07:42:00,-9.0,-16.0,-100.00,SE,135,2.0,5.0,71,0.00,,,0.00,0.000000,,2013-12-16 13:42:00,
2013-12-16 07:52:00,-9.0,-16.0,-100.00,SE,135,2.0,5.0,71,0.00,,,0.00,0.000000,,2013-12-16 13:52:00,
2013-12-16 08:00:00,-5.0,-11.0,-100.00,SSE,148,3.0,7.0,73,0.00,,,0.00,1.000000,,2013-12-16 14:00:00,
2013-12-16 08:42:00,-5.0,-11.0,-100.00,SSE,148,3.0,7.0,73,0.00,,,0.00,1.000000,,2013-12-16 14:42:00,
2013-12-16 08:52:00,-5.0,-11.0,-100.00,SSE,148,3.0,7.0,73,0.00,,,0.00,1.000000,,2013-12-16 14:52:00,
2013-12-16 09:00:00,-1.0,-7.0,-100.00,SSE,162,2.0,5.0,74,0.00,,,0.00,7.000000,,2013-12-16 15:00:00,
2013-12-16 09:43:00,-1.0,-7.0,-100.00,SSE,162,2.0,5.0,74,0.00,,,0.00,7.000000,,2013-12-16 15:43:00,
2013-12-16 09:54:00,-1.0,-7.0,-100.00,SSE,162,2.0,5.0,74,0.00,,,0.00,7.000000,,2013-12-16 15:54:00,
2013-12-16 10:00:00,3.0,-3.0,-100.00,SSE,160,3.0,6.0,74,0.00,,,0.00,19.000000,,2013-12-16 16:00:00,
2013-12-16 10:43:00,3.0,-3.0,-100.00,SSE,160,3.0,6.0,74,0.00,,,0.00,19.000000,,2013-12-16 16:43:00,
2013-12-16 10:52:00,3.0,-3.0,-100.00,SSE,160,3.0,6.0,74,0.00,,,0.00,19.000000,,2013-12-16 16:52:00,
2013-12-16 11:00:00,5.0,-2.0,-100.00,SSE,163,4.0,13.0,71,0.00,,,0.00,25.000000,,2013-12-16 17:00:00,
2013-12-16 11:43:00,5.0,-2.0,-100.00,SSE,163,4.0,13.0,71,0.00,,,0.00,25.000000,,2013-12-16 17:43:00,
2013-12-16 11:52:00,5.0,-2.0,-100.00,SSE,163,4.0,13.0,71,0.00,,,0.00,25.000000,,2013-12-16 17:52:00,
2013-12-16 12:00:00,5.0,-2.0,-100.00,SSE,160,5.0,11.0,73,0.00,,,0.00,16.000000,,2013-12-16 18:00:00,
2013-12-16 12:42:00,5.0,-2.0,-100.00,SSE,160,5.0,11.0,73,0.00,,,0.00,16.000000,,2013-12-16 18:42:00,
2013-12-16 12:52:00,5.0,-2.0,-100.00,SSE,160,5.0,11.0,73,0.00,,,0.00,16.000000,,2013-12-16 18:52:00,
2013-12-16 13:00:00,5.0,0.0,-100.00,South,181,3.0,11.0,78,0.00,,,0.00,8.000000,,2013-12-16 19:00:00,
2013-12-16 13:42:00,5.0,0.0,-100.00,South,181,3.0,11.0,78,0.00,,,0.00,8.000000,,2013-12-16 19:42:00,
2013-12-16 13:52:00,5.0,0.0,-100.00,South,181,3.0,11.0,78,0.00,,,0.00,8.000000,,2013-12-16 19:52:00,
2013-12-16 14:00:00,6.0,0.0,-100.00,South,176,5.0,10.0,75,0.00,,,0.00,13.000000,,2013-12-16 20:00:00,
2013-12-16 14:42:00,6.0,0.0,-100.00,South,176,5.0,10.0,75,0.00,,,0.00,13.000000,,2013-12-16 20:42:00,
2013-12-16 14:53:00,6.0,0.0,-100.00,South,176,5.0,10.0,75,0.00,,,0.00,13.000000,,2013-12-16 20:53:00,
2013-12-16 15:00:00,7.0,1.0,-100.00,South,171,5.0,14.0,76,0.00,,,0.00,14.000000,,2013-12-16 21:00:00,
2013-12-16 15:43:00,7.0,1.0,-100.00,South,171,5.0,14.0,76,0.00,,,0.00,14.000000,,2013-12-16 21:43:00,
2013-12-16 15:54:00,7.0,1.0,-100.00,South,171,5.0,14.0,76,0.00,,,0.00,14.000000,,2013-12-16 21:54:00,
2013-12-16 16:00:00,6.0,0.0,-100.00,SSW,199,6.0,12.0,77,0.00,,,0.00,6.000000,,2013-12-16 22:00:00,
2013-12-16 16:43:00,6.0,0.0,-100.00,SSW,199,6.0,12.0,77,0.00,,,0.00,6.000000,,2013-12-16 22:43:00,
2013-12-16 16:53:00,6.0,0.0,-100.00,SSW,199,6.0,12.0,77,0.00,,,0.00,6.000000,,2013-12-16 22:53:00,
2013-12-16 17:00:00,6.0,1.0,-100.00,SSW,206,7.0,13.0,78,0.00,,,0.00,0.000000,,2013-12-16 23:00:00,
2013-12-16 17:42:00,6.0,1.0,-100.00,SSW,206,7.0,13.0,78,0.00,,,0.00,0.000000,,2013-12-16 23:42:00,
2013-12-16 17:53:00,6.0,1.0,-100.00,SSW,206,7.0,13.0,78,0.00,,,0.00,0.000000,,2013-12-16 23:53:00,
2013-12-16 18:00:00,5.0,0.0,-100.00,SSW,211,7.0,12.0,78,0.00,,,0.00,0.000000,,2013-12-17 00:00:00,
2013-12-16 18:22:00,5.0,0.0,-100.00,SSW,211,7.0,12.0,78,0.00,,,0.00,0.000000,,2013-12-17 00:22:00,
2013-12-16 18:32:00,5.0,0.0,-100.00,SSW,211,7.0,12.0,78,0.00,,,0.00,0.000000,,2013-12-17 00:32:00,
2013-12-16 18:42:00,5.0,0.0,-100.00,SSW,211,7.0,12.0,78,0.00,,,0.00,0.000000,,2013-12-17 00:42:00,
2013-12-16 18:52:00,5.0,0.0,-100.00,SSW,211,7.0,12.0,78,0.00,,,0.00,0.000000,,2013-12-17 00:52:00,
2013-12-16 19:00:00,5.0,0.0,-100.00,SW,214,5.0,10.0,79,0.00,,,0.00,0.000000,,2013-12-17 01:00:00,
2013-12-16 19:42:00,5.0,0.0,-100.00,SW,214,5.0,10.0,79,0.00,,,0.00,0.000000,,2013-12-17 01:42:00,
2013-12-16 19:52:00,5.0,0.0,-100.00,SW,214,5.0,10.0,79,0.00,,,0.00,0.000000,,2013-12-17 01:52:00,
2013-12-16 20:00:00,5.0,0.0,-100.00,SSW,200,4.0,9.0,81,0.00,,,0.00,0.000000,,2013-12-17 02:00:00,
2013-12-16 20:42:00,5.0,0.0,-100.00,SSW,200,4.0,9.0,81,0.00,,,0.00,0.000000,,2013-12-17 02:42:00,
2013-12-16 20:52:00,5.0,0.0,-100.00,SSW,200,4.0,9.0,81,0.00,,,0.00,0.000000,,2013-12-17 02:52:00,
2013-12-16 21:00:00,6.0,2.0,-100.00,SSW,202,4.0,9.0,83,0.00,,,0.00,0.000000,,2013-12-17 03:00:00,
2013-12-16 21:44:00,6.0,2.0,-100.00,SSW,202,4.0,9.0,83,0.00,,,0.00,0.000000,,2013-12-17 03:44:00,
2013-12-16 21:53:00,6.0,2.0,-100.00,SSW,202,4.0,9.0,83,0.00,,,0.00,0.000000,,2013-12-17 03:53:00,
2013-12-16 22:00:00,7.0,3.0,-100.00,SSW,205,5.0,10.0,84,0.00,,,0.00,0.000000,,2013-12-17 04:00:00,
2013-12-16 22:43:00,7.0,3.0,-100.00,SSW,205,5.0,10.0,84,0.00,,,0.00,0.000000,,2013-12-17 04:43:00,
2013-12-16 22:53:00,7.0,3.0,-100.00,SSW,205,5.0,10.0,84,0.00,,,0.00,0.000000,,2013-12-17 04:53:00,
2013-12-16 23:00:00,7.0,3.0,-100.00,SSW,212,6.0,11.0,83,0.00,,,0.00,0.000000,,2013-12-17 05:00:00,
2013-12-16 23:42:00,7.0,3.0,-100.00,SSW,212,6.0,11.0,83,0.00,,,0.00,0.000000,,2013-12-17 05:42:00,
2013-12-16 23:53:00,7.0,3.0,-100.00,SSW,212,6.0,11.0,83,0.00,,,0.00,0.000000,,2013-12-17 05:53:00,